Location: N�rnberg
(49.4489°N, 11.0797°E)
Time: 14:09:32
(UTC+02:00)

ISS - Pass Details

Date: 07 January 2018
Orbit: 402 x 409 km, 51.6° (Epoch: 21 August)

Event Time Altitude Azimuth Distance (km) Brightness Sun altitude
Exits shadow 07:32:44 - 287° (WNW) 1,700 -1.3 -6.1°
Reaches altitude 10° 07:33:12 10° 287° (WNW) 1,514 -1.6 -6.0°
Maximum altitude 07:36:35 71° 203° (SSW) 452 -3.6 -5.5°
Drops below altitude 10° 07:39:59 10° 119° (ESE) 1,516 1.0 -5.1°
Sets 07:42:05 0° 117° (ESE) 2,381 3.2 -4.8°
